Weather in Savona

Italy     44°18′14″N   8°28′37″E
temp.,
°C
wind,
m/s
gust,
m/s
humid.,
%
clouds,
%
prec.,
mm/h
press.,
hPa
HPBL,
m
13 may, thu
thu1323:00+13n4484100 0.3 1008360
02:00+13ne5689100 0.8 1007355
05:00+12ne468814 0.1 1007304
08:00+13nnw11821 0.1 1006180
11:00+15se32705 0.1 1006593
14:00+15ese447826 0.3 1006705
17:00+15e447629 0.1 1005652
20:00+14ene5573100 0.1 1006729
14 may, fri
fri1423:00+13e237629 0.0 1007457
02:00+13sse1276100 0.0 1007287
05:00+13ne2279100 0.0 1007335
08:00+13nne238094 0.1 1008318
11:00+14ene337773 0.4 1009515
14:00+15ene3381100 2.6 1009425
17:00+14ssw227992 1.6 1008430
20:00+14ese127873 2.0 1010509
15 may, sat
sat1523:00+13ne238226 0.0 1011383
02:00+13ene2282100 0.0 1011356
05:00+13e228393 0.0 1011401
08:00+14ene2283100 0.1 1012423
11:00+14s3486100 1.1 1012448
14:00+14sse2379100 2.2 1011510
17:00+15se346998 0.2 1010773
20:00+15ene2377100 0.2 1008351
16 may, sun
sun1623:00+13n34875 0.0 1008189
02:00+13nnw328390 0.0 100879
05:00+13n2284100 0.0 1007118
08:00+14n3381100 0.0 1007193
11:00+16ene4577100 0.0 1007617
14:00+16ene5577100 0.1 1007667
17:00+16ene558114 0.0 1006599
20:00+15ne458712 0.1 1005362
17 may, mon
mon1723:00+15ne468823 0.1 1006259
02:00+14ne45885 0.1 1005310
05:00+14ne348727 0.0 1005282
08:00+15ne228234 0.0 1006388
11:00+16se337213 0.1 1006578
14:00+16ese117516 0.3 1006372
17:00+17ene43751 0.2 1006424
20:00+15ene33866 0.2 1006177